Dewpoint
62 62 63 63 62 62 62 63 63 63 63 63 64 65 67 67 66 65 65 65 66 66 66 67 66 65 66 65 65 65 64 64 64 63 63 63 63 64 64 63 62 62
62 63 63 63 62 63 63 62 62 62 62 62 62 64 65 68 66 65 64 64 65 66 66 66 67 66 66 65 65 65 64 65 64 64 63 63 63 64 64 64 63 63
62 62 62 62 62 62 62 62 61 62 62 62 62 63 64 66 66 65 64 63 64 65 66 66 67 67 66 66 65 65 65 65 65 64 64 63 63 63 63 64 64 63
62 62 62 62 63 62 62 62 62 62 63 63 63 63 64 65 66 66 64 64 63 64 66 66 66 67 67 66 66 65 65 65 65 65 65 64 63 64 63 64 64 64
62 62 62 62 62 63 62 62 62 62 62 63 63 63 63 64 64 65 65 64 64 65 66 66 66 67 67 67 66 65 65 65 65 65 65 64 64 64 64 64 64 63
63 63 63 63 63 62 62 62 62 62 62 62 63 64 64 64 64 65 65 65 66 66 65 65 65 65 65 65 65 65 64 65 65 65 65 65 64 65 64 64 64 64
63 63 63 62 62 62 62 62 62 62 62 63 63 64 64 64 64 64 64 64 65 64 64 65 65 65 65 65 65 65 65 64 64 65 64 64 64 64 65 64 64 64
63 63 64 64 63 62 62 62 61 61 62 63 63 63 64 64 64 64 64 64 64 64 64 64 65 64 65 65 65 65 64 64 64 64 64 64 64 64 65 65 65 64
64 63 64 64 64 63 63 62 62 62 62 62 63 63 64 64 64 64 65 64 64 64 64 64 64 64 65 65 65 65 64 64 64 64 64 64 64 64 64 64 64 64
64 64 64 64 64 64 64 64 63 63 63 63 63 64 64 65 65 64 64 64 64 64 64 64 64 65 65 65 65 65 65 64 64 64 64 64 64 64 64 64 64 64
64 64 64 64 64 64 64 64 64 64 64 63 63 64 64 64 65 65 65 65 65 64 64 64 64 65 64 65 65 65 65 65 65 64 64 64 64 64 65 64 64 64
63 64 64 64 64 64 64 65 65 64 64 64 64 63 63 64 64 65 65 65 65 65 65 64 64 65 65 64 65 65 65 65 65 65 65 64 64 64 64 64 64 65
53 59 64 64 64 65 65 65 65 64 64 64 64 64 64 64 64 64 65 65 65 65 65 65 65 65 65 65 65 65 65 65 65 65 65 65 65 64 64 65 64 65
52 52 53 57 63 65 65 65 65 64 64 64 64 64 64 64 64 64 64 65 65 65 65 65 65 65 65 65 65 65 65 65 65 65 65 65 65 65 64 65 65 65
50 52 53 54 55 56 62 64 64 64 64 64 64 64 64 64 64 64 64 64 65 65 65 65 65 65 65 65 65 65 66 65 65 65 65 65 65 65 64 65 65 65
48 50 51 51 52 53 54 57 62 64 64 63 64 64 64 64 64 64 64 64 64 65 65 65 65 65 63 59 60 65 66 66 66 65 65 65 65 65 65 65 64 65
48 48 49 49 49 51 51 52 54 59 63 64 64 64 64 64 64 63 64 64 64 64 65 65 65 65 59 54 53 56 64 66 66 65 65 65 65 65 65 65 65 64
47 47 47 47 48 48 48 49 50 52 56 60 63 64 64 64 64 64 64 64 64 64 64 65 65 61 55 53 52 52 57 65 66 66 65 65 65 65 65 65 65 65
47 47 47 47 47 47 48 48 48 48 49 51 56 60 63 64 64 65 64 64 64 64 64 64 64 58 53 52 52 51 51 58 65 65 65 65 65 65 65 65 65 65
48 48 48 48 48 48 48 48 48 47 47 48 49 54 58 60 62 63 64 64 64 64 64 64 64 59 51 52 52 50 50 52 63 64 64 64 64 64 65 65 65 64
48 47 47 48 48 48 48 48 48 47 47 47 48 48 50 54 59 60 62 63 63 64 64 64 64 56 51 50 50 50 50 50 61 63 64 64 64 64 64 64 64 64
47 47 47 47 48 48 48 47 47 47 47 47 48 48 49 52 57 60 60 61 62 63 63 63 64 54 51 49 49 49 49 56 60 61 62 63 64 64 65 65 65 65
47 47 47 47 48 48 47 47 47 47 47 48 47 47 47 49 51 55 59 61 61 61 62 62 63 58 51 49 49 49 50 58 60 61 62 62 63 65 65 66 65 65
47 47 47 48 47 47 47 47 47 47 47 48 47 47 47 47 48 50 54 59 60 61 61 61 62 59 53 50 49 48 52 59 60 61 61 61 62 64 65 65 65 62
47 47 47 47 47 47 47 47 47 47 48 48 48 48 48 48 47 47 48 53 58 61 60 60 61 59 53 50 49 49 51 57 60 61 61 61 62 62 64 64 64 62
47 48 48 47 47 47 47 47 48 48 48 48 48 48 48 48 47 47 46 47 50 55 59 60 61 61 59 52 50 49 48 57 60 60 60 61 61 62 62 63 63 63